Location: Rounton
(54.4000°N, 1.3500°W)
Time: 17:55:03
(UTC+00:00)

A-11 Canister half - All Passes

Search period start: 06 December 2021 00:00
Search period end: 16 December 2021 00:00
Orbit: 1524 x 1685 km, 47.3° (Epoch: 05 December)

Date Brightness Start Highest point End Pass type
(mag) Time Alt. Az. Time Alt. Az. Time Alt. Az.
06 Dec - 00:25:45 10° SSW 00:34:05 30° SE 00:42:21 10° E visible
06 Dec - 02:28:00 10° WSW 02:37:42 53° SSE 02:47:16 10° E visible
06 Dec - 04:32:10 10° W 04:41:58 57° S 04:51:31 10° ESE visible
06 Dec - 06:36:59 10° W 06:45:51 37° SSW 06:54:28 10° SSE visible
06 Dec - 08:43:56 10° W 08:48:30 14° SW 08:53:01 10° SSW daylight
07 Dec - 00:04:16 10° SSW 00:12:28 29° SE 00:20:37 10° E visible
07 Dec - 02:06:22 10° SW 02:16:03 52° SSE 02:25:36 10° E visible
07 Dec - 04:10:29 10° W 04:20:18 57° S 04:29:54 10° ESE visible
07 Dec - 06:15:15 10° W 06:24:14 39° SSW 06:32:56 10° SSE visible
07 Dec - 08:21:56 10° W 08:26:57 15° SW 08:31:54 10° SSW daylight
07 Dec - 23:42:48 10° SSW 23:50:51 28° SE 23:58:53 10° E visible
08 Dec - 01:44:43 10° SW 01:54:24 51° SSE 02:03:56 10° E visible
08 Dec - 03:48:48 10° W 03:58:39 58° S 04:08:16 10° ESE visible
08 Dec - 05:53:32 10° W 06:02:36 40° SSW 06:11:25 10° SE visible
08 Dec - 08:00:00 10° W 08:05:24 16° SW 08:10:43 10° SSW daylight
08 Dec - 23:21:19 10° S 23:29:15 27° SE 23:37:09 10° E night (unlit)
09 Dec - 01:23:05 10° SW 01:32:43 50° SSE 01:42:16 10° E visible
09 Dec - 03:27:07 10° W 03:36:58 58° S 03:46:37 10° ESE visible
09 Dec - 05:31:50 10° W 05:40:58 41° SSW 05:49:52 10° SE visible
09 Dec - 07:38:05 10° W 07:43:50 17° SW 07:49:31 10° SSW daylight
09 Dec - 22:59:52 10° S 23:07:38 26° SE 23:15:24 10° E night (unlit)
10 Dec - 01:01:29 10° SW 01:11:04 50° SSE 01:20:36 10° E visible
10 Dec - 03:05:26 10° W 03:15:18 58° S 03:24:59 10° ESE visible
10 Dec - 05:10:07 10° W 05:19:20 42° SSW 05:28:19 10° SE visible
10 Dec - 07:16:12 10° W 07:22:16 18° SW 07:28:15 10° SSW visible
10 Dec - 22:38:27 10° S 22:46:02 25° SE 22:53:39 10° E night (unlit)
11 Dec - 00:39:51 10° SW 00:49:25 49° SSE 00:58:55 10° E visible
11 Dec - 02:43:45 10° WSW 02:53:38 59° S 03:03:21 10° ESE visible
11 Dec - 04:48:24 10° W 04:57:42 43° SSW 05:06:46 10° SE visible
11 Dec - 06:54:20 10° W 07:00:42 19° SW 07:06:58 10° S visible
11 Dec - 22:17:01 10° S 22:24:26 24° SE 22:31:53 10° E night (unlit)
12 Dec - 00:18:14 10° SW 00:27:45 48° SSE 00:37:14 10° E visible
12 Dec - 02:22:04 10° WSW 02:31:58 59° S 02:41:42 10° ESE visible
12 Dec - 04:26:43 10° W 04:36:04 44° SSW 04:45:12 10° SE visible
12 Dec - 06:32:29 10° W 06:39:08 20° SW 06:45:39 10° S visible
12 Dec - 21:55:37 10° S 22:02:51 23° SE 22:10:06 10° E night (unlit)
12 Dec - 23:56:38 10° SW 00:06:06 47° SSE 00:15:33 10° E visible
13 Dec - 02:00:24 10° WSW 02:10:17 59° S 02:20:03 10° ESE visible
13 Dec - 04:05:01 10° W 04:14:25 45° SSW 04:23:38 10° SE visible
13 Dec - 06:10:40 10° W 06:17:33 21° SW 06:24:19 10° S visible
13 Dec - 21:34:14 10° S 21:41:15 22° SE 21:48:18 10° E night (unlit)
13 Dec - 23:35:02 10° SW 23:44:27 46° SSE 23:53:52 10° E night (unlit)
14 Dec - 01:38:43 10° WSW 01:48:37 59° S 01:58:23 10° ESE visible
14 Dec - 03:43:18 10° W 03:52:47 46° SSW 04:02:03 10° SE visible
14 Dec - 05:48:51 10° W 05:55:58 22° SW 06:02:58 10° S visible
14 Dec - 21:12:53 10° S 21:19:40 21° SE 21:26:29 10° E night (unlit)
14 Dec - 23:13:26 10° SW 23:22:48 45° SSE 23:32:11 10° E night (unlit)
15 Dec - 01:17:03 10° WSW 01:26:56 59° S 01:36:44 10° ESE visible
15 Dec - 03:21:37 10° W 03:31:08 47° SSW 03:40:28 10° SE visible
15 Dec - 05:27:04 10° W 05:34:23 23° SW 05:41:36 10° S visible
15 Dec - 20:51:32 10° S 20:58:05 20° SE 21:04:40 10° E night (unlit)
15 Dec - 22:51:52 10° SW 23:01:09 44° SSE 23:10:30 10° E night (unlit)
